カタログに戻る

FENGYUN 1C DEB

運用中SSO
NORAD 30170·DEBRIS·🇨🇳 China

打ち上げ May 10, 1999 から Taiyuan Satellite Launch Center

Loading…

次のパス (今後24時間)

TLE

最新Source: Space-Track

元期: Sep 14, 2026, 21:44 UTC

1 30170U 99025UB  26257.90562569  .00000303  00000-0  22684-3 0  9991
2 30170  98.8778 241.4619 0077234 228.1486 150.5210 14.00629575  2770

AllMySatでFENGYUN 1C DEBをリアルタイム追跡

Download on the App Store